Probability
1 1 0 0 0 0 0 0 0 0 0 0 0 0 0 0 0 0 0 0 0 1 1 1 0 0 0 1 2 3 3 3 3 3 3 3 3 3 2 3 3 1 1 2 2 3 3 3 3
1 0 0 0 0 0 0 0 0 0 0 0 0 0 0 0 0 0 0 0 0 0 0 0 0 0 0 1 2 3 3 3 3 3 3 3 3 3 3 3 3 2 1 1 2 3 3 3 2
0 0 0 0 0 0 0 0 0 0 0 0 0 0 0 0 0 0 0 0 0 0 0 0 0 0 0 0 1 1 2 3 3 3 3 3 3 3 3 3 3 3 3 2 3 3 3 1 1
0 0 0 0 0 0 0 0 0 0 0 0 0 0 0 0 0 0 0 0 0 0 0 0 0 0 0 0 0 0 1 2 2 2 2 3 3 3 3 3 3 3 3 3 3 3 3 1 1
0 0 0 0 0 0 0 0 0 0 0 0 0 0 0 0 0 0 0 0 0 0 0 0 0 0 0 0 0 0 0 1 1 1 1 1 3 3 2 3 3 3 3 3 3 3 3 3 2
0 0 0 0 0 0 0 0 0 0 0 0 0 0 0 0 0 0 0 0 0 0 0 0 0 0 0 0 0 0 0 0 0 0 0 1 2 3 3 3 3 1 1 2 3 3 3 3 3
0 0 0 0 0 0 0 0 0 0 0 0 0 0 0 0 0 0 0 0 0 0 0 0 0 0 0 0 0 0 0 0 0 0 0 1 2 3 3 3 2 1 0 1 1 2 3 3 3
0 0 0 0 0 0 0 0 0 0 0 0 0 0 0 0 0 0 0 0 0 0 0 0 0 0 0 0 0 0 0 0 0 0 0 1 2 2 2 3 2 1 1 0 0 1 2 3 3
0 0 0 0 0 0 0 0 0 0 0 0 0 0 0 0 0 0 0 0 0 0 0 0 0 0 0 0 0 0 0 0 0 0 0 0 1 1 1 1 2 2 1 0 0 0 1 1 2
0 0 0 0 0 0 0 0 0 0 0 0 0 0 0 0 0 0 0 0 0 0 0 0 0 0 0 0 0 0 0 0 0 0 0 0 0 0 0 1 2 2 1 0 0 0 0 0 1
1 1 1 0 0 0 0 0 0 0 0 0 0 0 0 0 0 0 0 0 0 0 0 0 0 0 0 0 0 0 0 0 0 0 0 0 0 0 0 0 1 1 0 0 0 0 0 0 0
2 3 2 0 0 0 0 0 0 0 0 0 0 0 0 0 0 0 0 0 0 0 0 0 0 0 0 0 0 0 0 0 0 0 0 0 0 0 0 0 0 0 0 0 0 0 0 0 0
2 3 2 0 0 0 0 0 0 0 0 0 0 0 0 0 0 0 0 0 0 0 0 0 0 0 0 0 0 0 0 0 0 0 0 0 0 0 0 0 0 0 0 0 0 0 0 0 0
2 2 2 0 0 0 0 0 0 0 0 0 0 0 0 0 0 0 0 0 0 0 0 0 0 0 0 0 0 0 0 0 0 0 0 0 0 0 0 0 0 0 0 0 0 0 0 0 0
1 1 1 0 0 0 0 0 0 0 0 0 0 0 0 0 0 0 0 0 0 0 0 0 0 0 0 0 0 0 0 0 0 0 0 0 0 0 0 0 0 0 0 0 0 0 0 0 0
0 0 0 0 0 0 0 0 0 0 0 0 0 0 0 0 0 0 0 0 0 0 0 0 0 0 0 0 0 0 0 0 0 0 0 0 0 0 0 0 0 0 0 0 0 0 0 0 0
0 0 0 0 0 0 0 0 0 0 0 0 0 0 0 0 0 0 0 0 0 0 0 0 0 0 0 0 0 0 0 0 0 0 0 0 0 0 0 0 0 0 0 0 0 0 0 0 0
0 0 0 0 0 0 0 0 0 0 0 0 0 0 0 0 0 0 0 0 0 0 0 0 0 0 0 0 0 0 0 0 0 0 0 0 0 0 0 0 0 0 0 0 0 0 0 0 0
0 0 0 0 0 0 0 0 0 0 0 0 0 0 0 0 0 0 0 0 0 0 0 0 0 0 0 0 0 0 0 0 0 0 0 0 0 0 0 0 0 0 0 0 0 0 0 0 0
0 0 0 0 0 0 0 0 0 0 0 0 0 0 0 0 0 0 0 0 0 0 0 0 0 0 0 0 0 0 0 0 0 0 0 0 0 0 0 0 0 0 0 0 0 0 0 0 0
0 0 0 0 0 0 0 0 0 0 0 0 0 0 0 0 0 0 0 0 0 0 0 0 0 0 0 0 0 0 0 0 0 0 0 0 0 0 0 0 0 0 0 0 0 0 0 0 0
0 0 0 0 0 0 0 0 0 0 0 0 0 0 0 0 0 0 0 0 0 0 0 0 0 0 0 0 0 0 0 0 0 0 0 0 0 0 0 0 0 0 0 0 0 0 0 0 0
0 0 0 0 0 0 0 0 0 0 0 0 0 0 0 0 0 0 0 0 0 0 0 0 0 0 0 0 0 0 0 0 0 0 0 0 0 0 0 0 0 0 0 0 0 0 0 0 0
0 0 0 0 0 0 0 0 0 0 0 0 0 0 0 0 0 0 0 0 0 0 0 0 0 0 0 0 0 0 0 0 0 0 0 0 0 0 0 0 0 0 0 0 0 0 0 0 0
0 0 0 0 0 0 0 0 0 0 0 0 0 0 0 0 0 0 0 0 0 0 0 0 0 0 0 0 0 0 0 0 0 0 0 0 0 0 0 0 0 0 0 0 0 0 0 0 0
0 0 0 0 0 0 0 0 0 0 0 0 0 0 0 0 0 0 0 0 0 0 0 0 0 0 0 0 0 0 0 0 0 0 0 0 0 0 0 0 0 0 0 0 0 0 0 0 0
0 0 0 0 0 0 0 0 0 0 0 0 0 0 0 0 0 0 0 0 0 0 0 0 0 0 0 0 0 0 0 0 0 0 0 0 0 0 0 0 0 0 0 0 0 0 0 0 0
0 0 0 0 0 0 0 0 0 0 0 0 0 0 0 0 0 0 0 0 0 0 0 0 0 0 0 0 0 0 0 0 0 0 0 0 0 0 0 0 0 0 0 0 0 0 0 0 0
0 0 0 0 0 0 0 0 0 0 0 0 0 0 0 0 0 0 0 0 0 0 0 0 0 0 0 0 0 0 0 0 0 0 0 0 0 0 0 0 0 0 0 0 0 0 0 0 0
0 0 0 0 0 0 0 0 0 0 0 0 0 0 0 0 0 0 0 0 0 0 0 0 0 0 0 0 0 0 0 0 0 0 0 0 0 0 0 0 0 0 0 0 0 0 0 0 0
Wind_Speed
3 2 2 3 5 5 2 1 1 1 2 2 4 6 6 5 3 4 0 3 5 5 4 6 10 10 10 11 11 11 11 10 10 10 10 9 9 8 8 8 7 7 7 7 7 7 7 7 6
1 1 3 4 5 3 2 1 2 2 3 3 5 5 7 6 4 5 2 4 6 5 4 6 10 10 11 11 10 10 10 9 9 9 9 9 9 8 8 8 7 7 7 6 6 6 6 6 6
1 2 3 4 4 2 1 1 1 3 3 3 4 5 5 4 3 2 2 5 6 5 4 6 10 10 10 10 10 10 9 9 9 9 9 8 8 8 8 8 7 7 7 6 6 6 6 6 6
3 4 4 5 3 0 1 1 2 4 4 5 4 5 4 3 2 4 6 6 6 4 4 6 10 9 9 9 9 9 8 8 8 8 7 7 7 7 7 7 7 7 7 6 6 6 6 6 6
3 4 5 3 2 1 1 1 2 3 3 4 4 5 4 5 6 8 7 6 6 4 3 4 9 8 8 8 8 7 7 8 7 7 7 7 6 6 6 6 7 7 6 6 6 7 6 6 6
4 4 4 2 1 1 1 1 3 4 4 4 5 5 3 2 5 5 5 5 4 4 4 4 7 8 7 7 7 6 6 6 6 6 6 6 5 5 6 6 6 6 6 6 6 7 7 6 6
4 4 3 2 1 2 2 2 4 4 4 3 3 5 2 0 2 4 5 5 4 4 4 3 3 4 5 5 5 5 5 5 5 6 6 6 6 7 7 7 7 7 7 6 7 7 7 7 7
3 4 3 1 2 1 1 3 4 4 3 3 3 6 4 3 3 5 5 5 4 3 3 3 3 3 4 3 3 4 5 5 6 6 7 7 8 8 8 8 8 7 7 7 7 7 7 7 8
3 5 2 1 2 1 1 3 3 3 5 3 3 4 5 7 7 6 5 3 2 1 1 2 2 3 3 3 4 5 5 6 6 6 7 7 4 5 5 7 9 8 8 8 8 8 8 7 7
4 3 2 1 2 2 2 3 3 4 5 4 5 6 7 8 7 6 5 3 1 1 1 0 1 1 2 3 3 3 3 4 4 3 4 3 3 3 5 8 10 10 10 9 10 9 8 6 3
3 3 2 1 2 2 2 3 3 6 3 3 7 8 7 7 5 5 4 3 3 2 1 1 0 1 1 2 2 2 2 2 3 4 3 3 3 3 4 3 5 6 7 5 6 6 4 3 3
3 1 2 1 2 2 2 4 5 4 2 4 7 8 7 7 6 5 4 3 2 1 1 0 1 1 1 1 1 2 1 2 2 3 3 3 2 3 3 2 3 3 3 3 3 3 4 4 3
2 2 3 3 5 4 6 6 5 4 4 6 8 7 7 6 4 3 3 3 2 2 1 1 2 2 1 1 1 2 2 2 2 2 2 2 2 2 2 2 3 3 3 3 3 3 4 4 4
2 4 5 5 5 4 7 5 5 3 4 6 7 5 4 4 4 3 2 2 2 2 2 1 2 2 2 2 1 1 1 1 2 2 2 2 2 2 2 3 3 3 3 3 2 3 3 3 3
3 5 6 4 3 2 5 7 4 2 4 6 4 3 2 2 2 3 3 3 3 2 2 2 2 2 2 2 2 1 1 1 2 2 2 2 2 2 2 2 3 3 3 3 3 3 3 3 3
4 5 4 3 2 1 5 3 3 2 5 5 3 2 1 1 1 1 2 2 3 3 2 2 2 3 2 2 2 2 2 2 2 2 2 3 2 2 2 2 2 3 3 3 3 3 3 3 3
5 3 2 2 3 2 5 4 1 2 4 4 2 2 1 1 1 0 1 2 3 3 3 2 2 3 3 3 3 2 2 2 2 2 2 2 3 2 2 2 2 3 3 3 3 3 2 2 3
2 2 2 2 3 5 6 4 3 2 4 3 2 2 2 1 1 1 1 2 2 3 3 3 3 3 3 3 2 2 3 2 2 2 2 3 2 3 2 2 3 3 3 3 3 3 3 2 2
5 4 3 2 2 5 6 5 3 2 3 2 1 1 2 1 1 1 2 3 3 3 3 3 3 2 2 2 2 2 2 2 2 2 3 3 3 3 2 2 3 3 2 2 3 2 3 3 3
6 6 3 4 3 4 5 4 3 2 1 1 2 1 2 1 2 2 3 3 3 3 3 3 2 2 2 2 1 1 1 1 1 2 3 4 4 3 2 2 2 2 2 3 3 2 2 3 3
3 5 5 4 2 4 3 3 3 2 2 2 1 1 1 2 3 2 2 2 3 3 2 2 2 2 2 2 2 2 3 3 3 3 3 4 4 4 3 3 2 2 2 2 3 2 2 2 2
1 2 5 5 4 2 2 1 2 1 2 1 1 0 1 1 2 2 2 2 2 2 2 3 3 3 3 3 3 3 2 1 2 2 2 3 4 4 4 3 3 3 2 2 2 2 1 1 1
4 5 5 4 4 3 3 2 4 1 2 3 3 2 2 1 3 3 3 3 2 2 3 3 4 4 3 3 4 4 3 1 1 2 3 4 4 4 4 4 3 4 3 3 3 3 2 1 1
7 7 6 5 4 2 1 2 5 4 6 4 4 3 3 2 3 2 2 3 3 3 3 4 4 4 3 4 3 3 3 2 3 3 3 3 3 3 5 4 4 3 3 3 3 3 2 1 1
5 6 3 2 2 2 1 2 7 5 5 6 6 5 4 3 3 4 4 3 3 3 3 3 4 3 3 3 3 3 3 3 2 1 2 2 2 3 4 4 3 3 3 3 3 3 3 3 2
3 5 6 5 4 2 1 4 6 3 2 3 4 4 4 4 3 4 4 4 3 3 3 3 3 3 2 3 2 2 2 2 1 1 1 1 1 1 3 3 3 3 3 4 3 3 3 3 3
5 2 4 6 2 1 3 5 5 1 2 3 4 5 5 5 4 4 4 3 3 3 3 3 4 2 2 2 2 2 2 2 2 2 2 1 1 2 3 3 3 4 3 3 3 3 3 3 3
4 6 4 5 5 2 3 4 5 5 6 6 6 7 6 5 4 4 4 4 3 3 2 3 3 3 2 2 1 2 1 1 2 2 2 2 2 2 3 3 4 4 4 3 3 2 3 3 3
4 3 4 4 4 5 3 7 7 9 10 10 9 8 7 7 6 5 4 3 3 3 3 3 2 2 2 2 1 2 1 1 2 2 1 1 2 2 3 2 3 3 3 3 3 3 3 3 4
5 6 7 5 3 4 3 8 3 5 7 9 8 7 6 6 5 5 4 3 3 3 3 3 2 2 2 2 2 2 1 2 2 1 1 1 2 2 2 2 2 3 3 3 3 3 3 3 4
Wind_Direction
356 40 67 55 57 53 43 351 70 55 46 43 59 71 82 66 77 115 134 121 120 114 111 115 114 110 103 98 95 92 88 84 80 78 77 74 72 70 69 66 64 60 55 52 48 44 45 41 38
52 53 49 57 76 65 6 351 81 90 132 115 63 63 69 66 66 94 101 119 116 112 106 113 111 106 102 98 94 90 87 85 81 77 74 71 67 64 60 58 55 51 47 45 43 35 36 33 30
70 50 69 66 79 123 131 78 100 96 100 89 72 53 62 71 88 96 129 121 107 102 101 114 110 106 101 97 94 91 87 84 81 76 71 67 64 61 55 51 49 45 39 36 34 26 25 21 18
72 44 51 67 68 8 122 128 119 111 67 51 82 63 58 40 98 116 112 108 103 98 99 114 112 107 102 98 97 94 89 84 78 72 66 61 57 54 50 45 42 38 33 29 25 19 16 10 8
60 71 61 59 45 11 24 60 89 88 64 55 74 78 46 7 85 105 108 107 107 97 92 110 115 111 107 105 101 94 86 79 73 66 59 50 44 38 32 31 30 29 27 24 18 10 8 5 1
54 64 82 89 42 35 37 71 80 74 79 78 76 81 53 32 93 110 110 105 104 99 80 81 111 113 109 104 98 89 80 72 64 55 47 38 29 18 12 11 13 15 14 11 9 4 2 359 359
94 87 105 117 81 53 59 80 80 90 88 82 99 91 89 80 115 111 98 88 83 82 76 59 55 73 89 92 89 77 64 57 49 39 31 26 22 15 9 6 3 0 360 0 3 1 360 357 357
113 96 81 70 101 62 13 84 85 86 89 87 93 120 154 190 122 94 81 72 72 68 63 54 45 42 36 30 46 50 44 37 33 28 20 21 20 14 10 6 2 358 358 1 2 2 4 4 3
84 73 95 145 144 110 31 81 65 64 84 59 64 116 143 131 113 99 83 62 63 79 41 47 41 37 29 12 21 29 28 27 29 19 16 21 17 7 5 5 9 9 7 7 8 7 7 9 5
78 104 165 184 157 124 72 90 103 78 71 68 69 77 103 117 125 128 136 151 172 219 257 208 37 24 20 13 27 18 23 20 23 22 20 26 26 15 24 15 19 18 17 14 15 12 12 13 1
95 140 160 105 123 118 95 88 89 105 95 139 136 133 125 127 136 152 162 175 198 212 240 193 158 37 37 27 25 18 16 16 20 23 29 37 36 24 22 14 11 9 14 11 6 8 6 4 355
101 92 122 110 114 92 78 91 80 71 127 139 137 139 136 144 160 169 172 183 177 172 222 171 124 95 59 59 44 33 24 26 26 17 28 41 38 27 16 11 359 5 358 359 1 356 356 1 359
90 92 76 73 75 83 76 73 89 51 64 104 116 126 143 153 162 168 157 152 151 165 173 121 129 124 109 82 51 54 35 37 32 28 28 51 55 35 21 4 4 1 356 0 357 357 359 2 1
95 90 75 62 67 59 88 67 67 49 86 106 117 136 150 156 161 141 140 155 176 177 160 128 122 124 115 98 79 57 41 37 44 35 28 48 60 54 32 14 6 0 355 353 356 356 359 359 1
78 84 59 41 69 82 89 51 35 42 110 111 123 137 135 151 149 161 174 176 179 164 137 135 130 114 110 101 90 75 45 39 40 26 22 38 51 50 40 22 5 350 348 355 2 2 7 14 13
60 64 63 14 48 65 104 93 14 49 113 116 124 123 119 131 114 149 162 175 166 144 132 134 117 110 99 88 76 58 40 39 25 18 21 23 36 45 41 27 0 346 356 5 9 9 10 13 11
43 89 100 37 28 69 93 111 18 43 107 108 111 131 139 101 31 347 154 166 161 147 130 106 91 97 94 82 69 57 44 34 13 13 15 7 21 35 44 27 358 356 8 11 8 20 18 8 3
127 109 92 70 26 76 87 84 52 55 102 102 94 113 144 150 249 236 125 127 123 123 117 109 93 85 91 78 61 41 33 18 13 12 4 3 8 21 32 24 6 8 18 12 11 16 17 12 356
136 120 97 60 40 77 86 80 54 59 91 93 85 107 138 163 328 61 79 93 94 86 95 99 98 90 91 77 70 54 20 352 353 358 4 6 8 16 25 16 8 11 19 6 5 13 20 10 358
114 108 96 72 54 85 87 64 46 52 100 157 160 155 150 119 68 65 72 80 93 97 95 93 103 97 84 91 104 110 96 3 337 347 9 13 13 10 19 23 10 7 11 13 16 26 24 11 18
115 152 152 132 95 64 90 31 14 359 24 46 60 112 138 153 152 131 102 94 90 94 111 111 106 88 76 84 84 63 42 23 15 8 1 358 9 17 20 16 12 10 21 7 1 19 51 22 6
138 178 146 134 112 55 94 123 300 316 338 322 300 148 185 164 148 143 131 117 114 120 100 94 91 81 72 79 90 89 81 49 349 336 343 354 12 19 20 21 20 18 16 7 353 27 41 69 11
139 108 99 99 100 75 43 108 279 299 252 250 239 230 214 181 161 159 155 143 121 109 103 96 88 77 70 74 91 96 87 75 3 6 18 14 9 14 17 22 21 19 16 9 6 14 30 56 61
116 88 66 51 67 63 223 151 262 224 214 213 214 209 194 162 138 130 118 111 98 89 93 95 91 73 65 74 78 101 105 89 59 36 27 13 3 5 12 18 19 15 14 13 10 13 23 23 39
96 103 75 33 28 256 227 201 250 239 211 192 190 192 184 159 141 135 128 123 116 108 106 103 100 79 64 73 71 85 101 98 91 74 44 26 10 2 356 7 8 8 5 12 19 24 18 12 15
158 132 149 168 191 260 282 240 257 262 211 168 164 166 160 157 155 153 152 148 144 134 126 120 112 98 82 80 73 68 81 90 91 92 80 54 9 332 340 356 5 6 11 18 22 23 8 12 11
131 141 152 122 116 115 269 281 300 117 136 150 155 157 172 177 168 162 153 152 154 150 150 146 135 116 100 93 85 71 74 85 92 79 65 48 12 359 3 7 10 7 12 18 25 24 8 6 1
133 140 106 117 143 211 274 260 238 212 203 190 183 186 188 178 171 165 161 166 165 159 146 135 135 135 126 109 98 92 78 89 97 81 55 33 11 10 16 16 16 14 13 16 25 15 2 15 1
127 122 116 117 148 155 224 262 225 203 196 191 194 191 186 182 180 176 173 168 153 136 135 137 138 125 117 114 100 84 71 91 95 80 45 23 11 12 15 9 17 15 11 9 18 10 10 11 360
164 169 151 153 197 174 181 264 276 210 195 186 186 184 183 180 174 169 163 152 146 147 147 151 156 152 157 148 124 106 84 94 90 63 20 20 12 5 6 11 17 11 8 5 10 358 2 0 349